DECAYED

STARLINK-1614, 46124 (Decayed)

Orbit data source: Space-Track

STARLINK-1614, 46124 was a payload satellite owned by SpaceX/Seattle (US) in LEO that was launched on Tue, 18 Aug 2020 UTC via an FALCON 9 launch vehicle from the Air Force Eastern Test Range (AFETR). Payload-class satellites include a variety of spacecraft equipped with specific instruments for various scientific and technological missions. These include communications satellites like Starlink; space stations such as the ISS; scientific satellites like the Hubble; Earth observation satellites from companies like Planet Labs, Umbra, and HawkEye 360; GPS; miniature CubeSats for education and research; and military/defense satellites.

Not visible in the next 10 days
Identifier
46124, 2020-057H
Orbit
Decayed
Country
Flag of USUS
Related business
Manufacturer
SpaceX/Seattle
Mission
Decayed Commercial Communications
Bus & Motor
STARLINK, Unknown motor
Mass
260 kg wet, ~248 kg dry
Launch date (UTC)
2020-08-18 (6 years ago)
Launch vehicle
FALCON 9
Launch site
Air Force Eastern Test Range (AFETR)
Object type
Payload
Rocket body
Debris
Shape & HBR
Box + 1 Pan, 10.1 m
Radar Cross Section
13.562 m², Large (>1 m²)

Expand to show TLE details & history
Last TLE update: 4 months ago

TLE from 4 months ago
0 STARLINK-1614
1 46124U 20057H   26038.80560848  .13908116  12488-4  32581-3 0  9997
2 46124  53.0189 345.9984 0003954 224.9342 135.1387 16.46197330303031
Epoch: 2026-02-07T19:20Z
TLE epoch observation values (Epoch: 2026-02-07T19:20:04.572Z)
Latitude
-0.00005°
Longitude
-81.94454°
Altitude
152.127 km
Speed
7.815 km/s
True Right ascension
23h 03m 59s
True Declination
0° 00' 00"
Sunlit
Object was in daylight at epoch
Visualization orbit readout
Latitude
Unknown
Longitude
Unknown
Altitude
Unknown
Speed
Unknown
Apparent Right ascension
Unknown
Apparent Declination
Unknown
Sunlit
N/A
Visualization observer readout
Local Sidereal Time
21:35:00
Azimuth
Unknown
Elevation
Unknown
Doppler factor
Unknown
Orbital elements
Apogee altitude
152.242 km
Perigee altitude
147.08 km
Semi-major axis
6,527.798 km
Eccentricity
0.0004
Inclination
53.0189°
RAAN
345.9984°
Arg. of periapsis
224.9342°
True anomaly
135.17065°
Mean anomaly
135.1387°
Eccentric anomaly
135.15468°
Mean motion
4.11522 °/min
Orbital period
87.48 mins
BSTAR
0.00032581
Loading maneuver chart data...
Computing Atmospheric mass density...

Documentation

Showing up to 5 results
|